TimeCDT,TemperatureF,Dew PointF,Humidity,Sea Level PressureIn,VisibilityMPH,Wind Direction,Wind SpeedMPH,Gust SpeedMPH,PrecipitationIn,Events,Conditions,WindDirDegrees,DateUTC
12:15 AM,53.6,48.2,82,30.19,10.0,Calm,Calm,-,N/A,,Scattered Clouds,0,2013-08-14 05:15:00
12:35 AM,51.8,46.4,82,30.19,10.0,Calm,Calm,-,N/A,,Clear,0,2013-08-14 05:35:00
12:55 AM,51.8,46.4,82,30.19,10.0,Calm,Calm,-,N/A,,Clear,0,2013-08-14 05:55:00
1:15 AM,51.8,46.4,82,30.19,10.0,Calm,Calm,-,N/A,,Clear,0,2013-08-14 06:15:00
1:35 AM,51.8,46.4,82,30.19,10.0,North,3.5,-,N/A,,Clear,350,2013-08-14 06:35:00
1:55 AM,51.8,46.4,82,30.19,10.0,Calm,Calm,-,N/A,,Clear,0,2013-08-14 06:55:00
2:15 AM,51.8,46.4,82,30.19,10.0,North,4.6,-,N/A,,Clear,350,2013-08-14 07:15:00
2:35 AM,50.0,44.6,82,30.19,10.0,North,4.6,-,N/A,,Clear,360,2013-08-14 07:35:00
2:55 AM,50.0,44.6,82,30.20,10.0,North,5.8,-,N/A,,Clear,360,2013-08-14 07:55:00
3:15 AM,50.0,44.6,82,30.20,10.0,North,4.6,-,N/A,,Clear,360,2013-08-14 08:15:00
3:35 AM,50.0,44.6,82,30.20,10.0,North,5.8,-,N/A,,Clear,350,2013-08-14 08:35:00
3:55 AM,48.2,42.8,82,30.20,10.0,North,3.5,-,N/A,,Clear,350,2013-08-14 08:55:00
4:15 AM,50.0,42.8,76,30.20,10.0,Calm,Calm,-,N/A,,Clear,0,2013-08-14 09:15:00
4:35 AM,50.0,42.8,76,30.21,10.0,Calm,Calm,-,N/A,,Clear,0,2013-08-14 09:35:00
4:55 AM,50.0,42.8,76,30.20,10.0,Calm,Calm,-,N/A,,Clear,0,2013-08-14 09:55:00
5:15 AM,48.2,42.8,82,30.20,10.0,Calm,Calm,-,N/A,,Clear,0,2013-08-14 10:15:00
5:35 AM,48.2,42.8,82,30.21,10.0,Calm,Calm,-,N/A,,Clear,0,2013-08-14 10:35:00
5:55 AM,48.2,42.8,82,30.22,10.0,Calm,Calm,-,N/A,,Clear,0,2013-08-14 10:55:00
6:15 AM,48.2,42.8,82,30.22,10.0,Calm,Calm,-,N/A,,Clear,0,2013-08-14 11:15:00
6:35 AM,50.0,42.8,76,30.23,10.0,Calm,Calm,-,N/A,,Clear,0,2013-08-14 11:35:00
6:45 AM,50.0,42.8,76,30.23,10.0,Calm,Calm,-,N/A,,Clear,0,2013-08-14 11:45:00
6:55 AM,50.0,42.8,76,30.23,10.0,Calm,Calm,-,N/A,,Clear,0,2013-08-14 11:55:00
7:45 AM,55.4,44.6,67,30.24,10.0,Calm,Calm,-,N/A,,Clear,0,2013-08-14 12:45:00
8:45 AM,60.8,42.8,52,30.23,10.0,NNE,8.1,-,N/A,,Clear,20,2013-08-14 13:45:00
9:45 AM,62.6,42.8,48,30.23,10.0,NE,5.8,-,N/A,,Clear,50,2013-08-14 14:45:00
10:45 AM,64.4,42.8,45,30.24,10.0,NNW,6.9,-,N/A,,Clear,340,2013-08-14 15:45:00
11:45 AM,64.4,42.8,45,30.23,10.0,NW,5.8,-,N/A,,Scattered Clouds,320,2013-08-14 16:45:00
12:45 PM,66.2,42.8,43,30.22,10.0,NNW,8.1,-,N/A,,Scattered Clouds,340,2013-08-14 17:45:00
1:45 PM,66.2,42.8,43,30.21,10.0,NNW,5.8,-,N/A,,Mostly Cloudy,340,2013-08-14 18:45:00
2:45 PM,68.0,44.6,43,30.20,10.0,East,4.6,-,N/A,,Mostly Cloudy,80,2013-08-14 19:45:00
3:45 PM,66.2,44.6,46,30.18,10.0,ESE,5.8,-,N/A,,Mostly Cloudy,120,2013-08-14 20:45:00
4:45 PM,68.0,44.6,43,30.18,10.0,SE,9.2,-,N/A,,Mostly Cloudy,130,2013-08-14 21:45:00
5:45 PM,68.0,44.6,43,30.16,10.0,ESE,5.8,-,N/A,,Clear,120,2013-08-14 22:45:00
6:45 PM,66.2,46.4,49,30.16,10.0,ESE,9.2,-,N/A,,Clear,120,2013-08-14 23:45:00
7:45 PM,64.4,46.4,52,30.16,10.0,SE,8.1,-,N/A,,Clear,140,2013-08-15 00:45:00
8:45 PM,60.8,48.2,63,30.16,10.0,SSE,5.8,-,N/A,,Clear,150,2013-08-15 01:45:00
9:15 PM,59.0,48.2,67,30.17,10.0,SSE,3.5,-,N/A,,Clear,160,2013-08-15 02:15:00
9:35 PM,59.0,48.2,67,30.17,10.0,South,3.5,-,N/A,,Clear,170,2013-08-15 02:35:00
9:55 PM,59.0,48.2,67,30.17,10.0,South,4.6,-,N/A,,Clear,170,2013-08-15 02:55:00
10:15 PM,59.0,48.2,67,30.17,10.0,South,4.6,-,N/A,,Clear,180,2013-08-15 03:15:00
10:35 PM,59.0,50.0,72,30.17,10.0,South,4.6,-,N/A,,Clear,170,2013-08-15 03:35:00
10:55 PM,57.2,48.2,72,30.17,10.0,South,4.6,-,N/A,,Clear,190,2013-08-15 03:55:00
11:15 PM,57.2,50.0,77,30.17,10.0,SSW,4.6,-,N/A,,Scattered Clouds,200,2013-08-15 04:15:00
11:35 PM,57.2,50.0,77,30.16,10.0,South,6.9,-,N/A,,Scattered Clouds,190,2013-08-15 04:35:00
11:55 PM,55.4,50.0,82,30.17,10.0,SSW,4.6,-,N/A,,Scattered Clouds,200,2013-08-15 04:55:00